Sde Dov current weather conditions

sailwx.info

Wind from 090 at 4 knots

Air temperature 22.0° C
Dewpoint 17.0° C

Last reported at 2014-Oct-25 19:50 UTC.
Time now 2014-Oct-25 23:29 UTC

Location: N 32°07' E 034°47'.
View on Google Maps.

See reports from other nearby stations

  
Tides and Currents Weather Stations Pressure Air Temp Water Temp Dewpoint Dewpoint Depression Visibility Wind Speed Wind Dir Waves Ship Positions
date/time (UTC)wind fromknots sea level pressurealtimeterstation pressurevisibilityair tempwater tempwave heightnotes
2014-Oct-25 19:50 090 4 22.0
2014-Oct-25 18:50 23.0
2014-Oct-25 17:50 24.0
2014-Oct-25 16:50 24.0
2014-Oct-25 15:50 020 4 25.0
2014-Oct-25 14:50 310 11 26.0
2014-Oct-25 13:50 300 10 27.0
2014-Oct-25 12:50 290 11 27.0
2014-Oct-25 11:50 280 11 27.0
2014-Oct-25 10:50 280 8 27.0
2014-Oct-25 09:50 290 6 27.0
2014-Oct-25 08:50 270 4 26.0
2014-Oct-25 07:50 26.0
2014-Oct-25 06:50 26.0
2014-Oct-25 05:50 090 5 22.0
2014-Oct-25 04:50 110 5 19.0
2014-Oct-25 03:50 100 5 18.0
2014-Oct-25 02:50 100 4 18.0
2014-Oct-25 02:00 110 4 19.0
2014-Oct-24 18:50 090 4 23.0
2014-Oct-24 17:50 23.0
2014-Oct-24 16:50 24.0
2014-Oct-24 15:50 360 4 25.0
2014-Oct-24 14:50 320 7 26.0
2014-Oct-24 13:50 300 9 27.0
2014-Oct-24 12:50 290 10 27.0
2014-Oct-24 11:50 200 11 27.0
2014-Oct-24 10:50 280 9 27.0
2014-Oct-24 09:50 270 7 27.0
2014-Oct-24 08:50 240 6 26.0
2014-Oct-24 07:50 240 4 25.0
2014-Oct-24 06:50 25.0
2014-Oct-24 05:50 23.0
2014-Oct-24 04:50 090 5 20.0
2014-Oct-24 03:50 090 7 19.0
2014-Oct-24 02:50 090 6 19.0
2014-Oct-24 02:32 090 5 19.0